Change the Weather History Date:

Sunday, October 30, 2011

  Actual Average Record
Temperature  
Mean Temperature 36 °F -  
Max Temperature 39 °F 38 °F 48 °F (1979)
Min Temperature 30 °F 30 °F 13 °F (1975)
Degree Days  
Heating Degree Days 30    
Moisture  
Dew Point 26 °F    
Average Humidity 68    
Maximum Humidity 85    
Minimum Humidity 48    
Precipitation  
Precipitation 0.01 in - - ()
Sea Level Pressure  
Sea Level Pressure 29.42 in    
Wind  
Wind Speed 12 mph (North)    
Max Wind Speed 18 mph    
Max Gust Speed 30 mph    
Visibility 10 miles    
Events Rain , Snow    
Averages and records for this station are not official NWS values.
T = Trace of Precipitation, MM = Missing Value Source: NWS Daily Summary

Daily Weather History Graph

Daily Weather History Graph

Search for Another Location

Airport or City:

Trip Planner

Search our weather history database for the weather conditions in past years. The results will help you decide how hot, cold, wet, or windy it might be!

Date:

Astronomy

Oct. 30, 2011 Rise Set
Actual Time 9:15 AM AKDT 6:06 PM AKDT
Civil Twilight 8:30 AM AKDT 6:51 PM AKDT
Nautical Twilight 7:40 AM AKDT 7:40 PM AKDT
Astronomical Twilight 6:52 AM AKDT 8:28 PM AKDT
Moon 2:35 PM AKDT (10/30) 8:57 PM AKDT (10/30)
Length of Visible Light 10h 21m
Length of Day
8h 51m
Waxing Crescent, 21% of the Moon is Illuminated
Oct 30
Waxing Crescent
Nov 2
First Quarter
Nov 10
Full
Nov 18
Last Quarter
Nov 24
New

Hourly Weather History & Observations

Time (AKDT) Temp. Windchill Dew Point Humidity Pressure Visibility Wind Dir Wind Speed Gust Speed Precip Events Conditions
12:53 AM 35.1 °F 27.4 °F 30.9 °F 85% 29.21 in 10.0 mi North 10.4 mph - 0.00 in   Overcast
1:53 AM 36.0 °F 28.5 °F 30.9 °F 82% 29.23 in 10.0 mi North 10.4 mph - 0.00 in Rain Light Rain
2:53 AM 37.9 °F 29.2 °F 30.9 °F 76% 29.24 in 10.0 mi North 15.0 mph 21.9 mph 0.00 in   Overcast
3:53 AM 37.9 °F 30.5 °F 30.9 °F 76% 29.26 in 10.0 mi North 11.5 mph 18.4 mph 0.00 in   Overcast
4:53 AM 39.0 °F 29.9 °F 28.9 °F 67% 29.28 in 10.0 mi NNE 17.3 mph 25.3 mph N/A   Overcast
5:53 AM 39.0 °F 31.0 °F 30.0 °F 70% 29.30 in 10.0 mi North 13.8 mph 21.9 mph N/A   Overcast
6:53 AM 37.0 °F 29.3 °F 30.9 °F 79% 29.31 in 10.0 mi North 11.5 mph 20.7 mph 0.00 in Rain Light Rain
7:02 AM 37.4 °F 29.8 °F 30.2 °F 75% 29.31 in 10.0 mi NNE 11.5 mph 17.3 mph 0.00 in   Overcast
7:16 AM 37.4 °F 29.8 °F 30.2 °F 75% 29.32 in 10.0 mi North 11.5 mph 20.7 mph 0.00 in   Overcast
7:53 AM 37.0 °F 29.8 °F 30.9 °F 79% 29.34 in 10.0 mi NNE 10.4 mph - 0.00 in   Overcast
8:08 AM 37.4 °F 29.8 °F 30.2 °F 75% 29.34 in 10.0 mi North 11.5 mph - 0.01 in Rain Light Rain
8:53 AM 37.0 °F 30.4 °F 32.0 °F 82% 29.35 in 10.0 mi NNE 9.2 mph - 0.01 in   Overcast
9:51 AM 35.6 °F 28.0 °F 28.4 °F 75% 29.38 in 10.0 mi NW 10.4 mph 18.4 mph 0.00 in Snow Light Snow
9:53 AM 36.0 °F 26.3 °F 28.9 °F 76% 29.38 in 8.0 mi NNW 16.1 mph 20.7 mph 0.00 in Snow Light Snow
10:22 AM 35.6 °F 28.0 °F 28.4 °F 75% 29.39 in 4.0 mi North 10.4 mph 20.7 mph 0.00 in Snow Light Snow
10:53 AM 35.1 °F 26.9 °F 28.9 °F 78% 29.40 in 9.0 mi North 11.5 mph 16.1 mph 0.00 in   Overcast
11:12 AM 35.6 °F 28.0 °F 28.4 °F 75% 29.40 in 10.0 mi NNE 10.4 mph - N/A   Overcast
12:53 PM 36.0 °F 29.0 °F 28.0 °F 73% 29.44 in 10.0 mi NNE 9.2 mph 19.6 mph N/A   Overcast
1:53 PM 37.0 °F 31.0 °F 28.0 °F 70% 29.45 in 10.0 mi North 8.1 mph 21.9 mph N/A   Mostly Cloudy
2:53 PM 39.9 °F 30.8 °F 24.1 °F 53% 29.47 in 10.0 mi North 18.4 mph 27.6 mph N/A   Mostly Cloudy
3:53 PM 37.0 °F 28.1 °F 21.0 °F 52% 29.49 in 10.0 mi NNW 15.0 mph 25.3 mph N/A   Overcast
4:53 PM 36.0 °F 26.3 °F 18.0 °F 48% 29.51 in 10.0 mi NNW 16.1 mph 29.9 mph N/A   Partly Cloudy
5:53 PM 34.0 °F 26.0 °F 18.0 °F 52% 29.54 in 10.0 mi North 10.4 mph - N/A   Partly Cloudy
6:53 PM 33.1 °F 26.1 °F 18.0 °F 54% 29.56 in 10.0 mi NNW 8.1 mph 18.4 mph N/A   Mostly Cloudy
7:53 PM 32.0 °F 25.6 °F 18.0 °F 56% 29.59 in 10.0 mi North 6.9 mph - N/A   Overcast
8:53 PM 32.0 °F 23.6 °F 16.0 °F 52% 29.61 in 10.0 mi North 10.4 mph - N/A   Mostly Cloudy
9:53 PM 32.0 °F 24.2 °F 16.0 °F 52% 29.64 in 10.0 mi NW 9.2 mph - N/A   Overcast
10:53 PM 32.0 °F 24.2 °F 16.0 °F 52% 29.67 in 10.0 mi North 9.2 mph - N/A   Mostly Cloudy
11:53 PM 30.0 °F 24.1 °F 17.1 °F 59% 29.69 in 10.0 mi NNE 5.8 mph - N/A   Clear